Total_Precipitation_Accumulation
0.03 0.05 0.06 0.05 0.06 0.08 0.08 0.06 0.07 0.07 0.08 0.07 0.09 0.09 0.08 0.08 0.07 0.05 0.04 0.01 0.00 0.00 0.01 0.00 0.01 0.07 0.05 0.00 0.00 0.00 0.00 0.00 0.00 0.00 0.00 0.00 0.00 0.00 0.00 0.00 0.00 0.00 0.00 0.00 0.00
0.07 0.07 0.05 0.05 0.06 0.09 0.09 0.08 0.06 0.06 0.08 0.10 0.09 0.09 0.08 0.08 0.05 0.03 0.00 0.00 0.00 0.01 0.02 0.01 0.01 0.08 0.10 0.01 0.00 0.00 0.00 0.00 0.00 0.00 0.00 0.00 0.00 0.00 0.00 0.00 0.00 0.00 0.00 0.00 0.00
0.08 0.04 0.06 0.08 0.07 0.06 0.08 0.08 0.06 0.07 0.10 0.12 0.12 0.12 0.14 0.10 0.05 0.01 0.00 0.01 0.02 0.07 0.04 0.01 0.01 0.06 0.10 0.04 0.00 0.00 0.00 0.00 0.00 0.00 0.00 0.00 0.00 0.00 0.00 0.00 0.00 0.00 0.00 0.00 0.00
0.06 0.06 0.08 0.06 0.05 0.04 0.05 0.08 0.10 0.11 0.12 0.13 0.14 0.15 0.23 0.17 0.03 0.04 0.03 0.05 0.20 0.35 0.20 0.09 0.04 0.08 0.06 0.02 0.00 0.00 0.00 0.00 0.00 0.00 0.00 0.00 0.00 0.00 0.00 0.00 0.00 0.00 0.00 0.00 0.00
0.08 0.08 0.07 0.05 0.05 0.04 0.06 0.08 0.13 0.11 0.17 0.23 0.20 0.31 0.34 0.14 0.03 0.05 0.05 0.05 0.16 0.45 0.27 0.12 0.04 0.04 0.02 0.01 0.01 0.00 0.00 0.00 0.00 0.00 0.00 0.00 0.00 0.00 0.00 0.00 0.00 0.00 0.00 0.00 0.00
0.08 0.08 0.07 0.06 0.06 0.06 0.08 0.06 0.09 0.14 0.19 0.23 0.30 0.40 0.32 0.10 0.00 0.00 0.02 0.09 0.06 0.22 0.27 0.24 0.06 0.02 0.02 0.02 0.01 0.00 0.00 0.00 0.00 0.00 0.00 0.00 0.00 0.00 0.00 0.00 0.00 0.00 0.00 0.00 0.00
0.10 0.08 0.07 0.07 0.09 0.07 0.09 0.08 0.09 0.18 0.19 0.26 0.38 0.55 0.31 0.04 0.00 0.00 0.02 0.07 0.12 0.16 0.21 0.19 0.17 0.04 0.02 0.03 0.01 0.00 0.00 0.00 0.00 0.00 0.00 0.00 0.00 0.00 0.00 0.00 0.00 0.00 0.00 0.00 0.00
0.09 0.09 0.08 0.10 0.08 0.08 0.08 0.07 0.08 0.19 0.28 0.37 0.50 0.69 0.20 0.00 0.00 0.00 0.00 0.04 0.13 0.24 0.35 0.55 0.52 0.28 0.05 0.02 0.02 0.01 0.01 0.00 0.00 0.00 0.00 0.00 0.00 0.00 0.00 0.00 0.00 0.00 0.00 0.00 0.00
0.10 0.11 0.12 0.12 0.09 0.10 0.08 0.08 0.05 0.19 0.46 0.52 0.87 0.61 0.17 0.01 0.00 0.00 0.00 0.03 0.17 0.27 0.45 0.83 0.94 0.65 0.27 0.07 0.07 0.05 0.01 0.00 0.00 0.00 0.00 0.00 0.00 0.00 0.00 0.00 0.00 0.00 0.00 0.00 0.00
0.13 0.12 0.16 0.12 0.10 0.12 0.19 0.08 0.01 0.19 0.47 0.69 0.78 0.59 0.12 0.01 0.00 0.02 0.01 0.03 0.18 0.40 0.59 0.96 0.93 0.80 0.47 0.14 0.05 0.01 0.00 0.00 0.00 0.00 0.00 0.00 0.00 0.00 0.00 0.00 0.00 0.00 0.00 0.00 0.00
0.14 0.15 0.16 0.12 0.14 0.23 0.27 0.07 0.05 0.33 0.71 0.64 0.57 0.15 0.05 0.01 0.04 0.05 0.03 0.07 0.27 0.62 0.31 0.76 1.28 0.82 0.34 0.11 0.01 0.00 0.00 0.00 0.00 0.00 0.00 0.00 0.00 0.00 0.00 0.00 0.00 0.00 0.00 0.00 0.00
0.16 0.13 0.13 0.14 0.17 0.22 0.20 0.08 0.16 0.43 0.58 0.40 0.36 0.09 0.11 0.03 0.08 0.14 0.11 0.16 0.25 0.53 0.19 0.51 1.05 0.50 0.28 0.21 0.09 0.00 0.00 0.00 0.00 0.00 0.00 0.00 0.00 0.00 0.00 0.00 0.00 0.00 0.00 0.00 0.00
0.14 0.12 0.13 0.21 0.18 0.10 0.17 0.28 0.35 0.49 0.60 0.35 0.45 0.36 0.21 0.09 0.11 0.23 0.17 0.20 0.23 0.52 0.13 0.33 0.51 0.56 0.63 0.52 0.28 0.04 0.00 0.00 0.00 0.00 0.00 0.00 0.00 0.00 0.00 0.00 0.00 0.00 0.00 0.00 0.00
0.13 0.12 0.18 0.27 0.25 0.23 0.31 0.64 0.35 0.76 0.84 0.37 0.60 0.69 0.43 0.25 0.26 0.24 0.19 0.18 0.17 0.50 0.20 0.42 0.33 0.52 0.76 0.72 0.43 0.21 0.01 0.00 0.00 0.00 0.00 0.00 0.00 0.00 0.00 0.00 0.00 0.00 0.00 0.00 0.00
0.11 0.10 0.18 0.45 0.63 0.51 0.49 0.36 0.24 0.56 0.68 0.32 0.55 0.69 0.53 0.46 0.51 0.42 0.30 0.12 0.15 0.57 0.20 0.33 0.29 0.29 0.43 0.48 0.40 0.20 0.06 0.00 0.00 0.00 0.00 0.00 0.00 0.00 0.00 0.00 0.00 0.00 0.00 0.00 0.00
0.08 0.09 0.15 0.22 0.36 0.27 0.14 0.21 0.43 0.52 0.82 0.82 0.52 0.86 0.68 0.60 0.49 0.68 0.30 0.16 0.27 0.51 0.20 0.21 0.20 0.33 0.20 0.29 0.29 0.11 0.04 0.00 0.00 0.00 0.00 0.00 0.00 0.00 0.00 0.00 0.00 0.00 0.00 0.00 0.00
0.07 0.12 0.18 0.21 0.17 0.04 0.11 0.13 0.33 0.46 0.72 0.72 0.51 0.74 0.75 0.54 0.55 0.58 0.22 0.25 0.26 0.49 0.44 0.42 0.26 0.22 0.33 0.38 0.31 0.12 0.11 0.08 0.03 0.01 0.00 0.00 0.00 0.00 0.00 0.00 0.00 0.00 0.00 0.00 0.00
0.09 0.11 0.04 0.09 0.14 0.05 0.12 0.12 0.26 0.42 0.81 0.67 0.55 0.77 0.80 0.42 0.65 0.31 0.11 0.09 0.09 0.09 0.18 0.36 0.37 0.27 0.33 0.14 0.15 0.07 0.11 0.06 0.01 0.00 0.00 0.00 0.00 0.00 0.00 0.00 0.00 0.00 0.00 0.00 0.00
0.05 0.02 0.05 0.09 0.09 0.05 0.07 0.12 0.30 0.75 0.79 1.15 0.93 0.84 0.49 0.20 0.28 0.15 0.04 0.03 0.05 0.02 0.04 0.12 0.13 0.13 0.14 0.06 0.04 0.04 0.02 0.01 0.00 0.00 0.00 0.00 0.00 0.00 0.00 0.00 0.00 0.00 0.00 0.00 0.00
0.06 0.09 0.16 0.10 0.06 0.07 0.09 0.26 0.45 0.62 0.94 0.74 0.82 0.29 0.21 0.13 0.10 0.08 0.04 0.01 0.01 0.00 0.00 0.00 0.05 0.06 0.02 0.04 0.01 0.00 0.01 0.00 0.00 0.00 0.00 0.00 0.00 0.00 0.00 0.00 0.00 0.00 0.00 0.00 0.00
0.08 0.11 0.20 0.07 0.08 0.05 0.13 0.36 0.62 0.54 0.53 0.21 0.02 0.01 0.01 0.02 0.01 0.01 0.00 0.00 0.00 0.00 0.00 0.00 0.00 0.03 0.01 0.02 0.01 0.00 0.00 0.00 0.00 0.00 0.00 0.00 0.00 0.00 0.00 0.00 0.00 0.00 0.00 0.00 0.00
0.15 0.25 0.17 0.11 0.02 0.03 0.16 0.32 0.78 0.53 0.11 0.01 0.00 0.00 0.00 0.00 0.00 0.00 0.00 0.00 0.00 0.00 0.00 0.00 0.00 0.02 0.01 0.00 0.00 0.00 0.00 0.00 0.00 0.00 0.01 0.01 0.00 0.00 0.00 0.00 0.00 0.00 0.00 0.00 0.00
0.08 0.04 0.07 0.08 0.07 0.09 0.20 0.36 0.55 0.16 0.02 0.01 0.00 0.00 0.00 0.00 0.00 0.00 0.00 0.00 0.00 0.00 0.00 0.00 0.00 0.00 0.01 0.00 0.00 0.00 0.00 0.00 0.01 0.04 0.02 0.03 0.01 0.00 0.00 0.00 0.00 0.00 0.00 0.00 0.00
0.02 0.03 0.04 0.12 0.09 0.22 0.49 0.61 0.35 0.08 0.02 0.00 0.00 0.00 0.00 0.00 0.00 0.00 0.00 0.00 0.00 0.00 0.00 0.00 0.00 0.00 0.00 0.00 0.00 0.00 0.00 0.00 0.03 0.08 0.02 0.01 0.00 0.00 0.00 0.00 0.00 0.00 0.00 0.00 0.00
0.01 0.02 0.04 0.03 0.10 0.07 0.24 0.23 0.07 0.02 0.00 0.00 0.00 0.00 0.00 0.00 0.00 0.00 0.00 0.00 0.00 0.00 0.00 0.00 0.00 0.00 0.00 0.00 0.00 0.00 0.00 0.00 0.05 0.03 0.11 0.03 0.00 0.00 0.00 0.00 0.00 0.00 0.00 0.01 0.03
0.01 0.12 0.09 0.10 0.11 0.05 0.17 0.25 0.06 0.00 0.00 0.00 0.00 0.00 0.00 0.00 0.00 0.00 0.00 0.00 0.00 0.00 0.00 0.00 0.00 0.00 0.00 0.00 0.00 0.00 0.00 0.00 0.00 0.02 0.04 0.01 0.01 0.00 0.00 0.00 0.00 0.00 0.02 0.03 0.02
0.02 0.02 0.02 0.05 0.06 0.17 0.19 0.12 0.02 0.00 0.01 0.00 0.00 0.00 0.00 0.00 0.00 0.00 0.00 0.00 0.00 0.00 0.00 0.00 0.00 0.01 0.00 0.00 0.00 0.00 0.00 0.00 0.00 0.01 0.02 0.01 0.00 0.00 0.00 0.00 0.01 0.02 0.02 0.01 0.01